iso_date,epoch_date,Year,Hour,Min,DOY,POS_DOY,Lat,Lon,BP,Ts,Ta,has_bp,has_ts,has_ta,BuoyID,Buoy_Type,Buoy_Owner,Logistics,Hemisphere
2014-05-22T16:00:28Z,1400774429,2014,16,12,142.667,142.667,70.909,-165.104,-999.00,-999.00,-999.0,no,no,no,134538,unknown,unknown,unknown,North
2014-05-23T16:00:28Z,1400860829,2014,16,28,143.667,143.667,71.628,-164.142,-999.00,-999.00,-999.0,no,no,no,134538,unknown,unknown,unknown,North
2014-05-24T15:00:00Z,1400943600,2014,15,43,144.625,144.625,72.436,-166.392,-999.00,-999.00,-999.0,no,no,no,134538,unknown,unknown,unknown,North
2014-05-25T16:00:28Z,1401033629,2014,16,0,145.667,145.667,72.946,-167.066,-999.00,-999.00,-999.0,no,no,no,134538,unknown,unknown,unknown,North
2014-05-26T15:00:00Z,1401116400,2014,15,56,146.625,146.625,72.498,-168.251,-999.00,-999.00,-999.0,no,no,no,134538,unknown,unknown,unknown,North
2014-05-27T15:00:00Z,1401202800,2014,15,47,147.625,147.625,72.133,-166.225,-999.00,-999.00,-999.0,no,no,no,134538,unknown,unknown,unknown,North
2014-05-28T16:00:28Z,1401292829,2014,16,17,148.667,148.667,72.202,-162.316,-999.00,-999.00,-999.0,no,no,no,134538,unknown,unknown,unknown,North
2014-05-29T15:00:00Z,1401375600,2014,15,56,149.625,149.625,72.854,-163.118,-999.00,-999.00,-999.0,no,no,no,134538,unknown,unknown,unknown,North
2014-05-30T16:00:28Z,1401465629,2014,16,26,150.667,150.667,73.213,-162.021,-999.00,-999.00,-999.0,no,no,no,134538,unknown,unknown,unknown,North
2014-05-31T16:00:28Z,1401552029,2014,16,8,151.667,151.667,73.176,-164.08,-999.00,-999.00,-999.0,no,no,no,134538,unknown,unknown,unknown,North
2014-06-01T16:00:28Z,1401638429,2014,16,29,152.667,152.667,72.89,-165.182,-999.00,-999.00,-999.0,no,no,no,134538,unknown,unknown,unknown,North
2014-06-02T16:00:28Z,1401724829,2014,16,20,153.667,153.667,71.922,-166.331,-999.00,-999.00,-999.0,no,no,no,134538,unknown,unknown,unknown,North
2014-06-03T16:00:28Z,1401811229,2014,16,11,154.667,154.667,71.529,-166.503,-999.00,-999.00,-999.0,no,no,no,134538,unknown,unknown,unknown,North
2014-06-04T16:00:28Z,1401897629,2014,16,0,155.667,155.667,71.661,-166.116,-999.00,-999.00,-999.0,no,no,no,134538,unknown,unknown,unknown,North
2014-06-05T16:00:28Z,1401984029,2014,16,26,156.667,156.667,71.659,-165.903,-999.00,-999.00,-999.0,no,no,no,134538,unknown,unknown,unknown,North
2014-06-06T16:00:28Z,1402070429,2014,16,2,157.667,157.667,71.591,-165.807,-999.00,-999.00,-999.0,no,no,no,134538,unknown,unknown,unknown,North
2014-06-07T16:00:28Z,1402156829,2014,16,32,158.667,158.667,70.702,-165.537,-999.00,-999.00,-999.0,no,no,no,134538,unknown,unknown,unknown,North
2014-06-08T16:00:28Z,1402243229,2014,16,19,159.667,159.667,69.871,-164.399,-999.00,-999.00,-999.0,no,no,no,134538,unknown,unknown,unknown,North
2014-06-09T16:00:28Z,1402329629,2014,16,26,160.667,160.667,69.683,-168.3,-999.00,-999.00,-999.0,no,no,no,134538,unknown,unknown,unknown,North
2014-06-10T16:00:28Z,1402416029,2014,16,29,161.667,161.667,70.346,-166.938,-999.00,-999.00,-999.0,no,no,no,134538,unknown,unknown,unknown,North
2014-06-11T16:00:28Z,1402502429,2014,16,22,162.667,162.667,70.702,-167.846,-999.00,-999.00,-999.0,no,no,no,134538,unknown,unknown,unknown,North
2014-06-12T16:00:28Z,1402588829,2014,16,4,163.667,163.667,71.503,-168.727,-999.00,-999.00,-999.0,no,no,no,134538,unknown,unknown,unknown,North
2014-06-13T15:00:00Z,1402671600,2014,15,58,164.625,164.625,72.528,-168.599,-999.00,-999.00,-999.0,no,no,no,134538,unknown,unknown,unknown,North
2014-06-14T15:00:00Z,1402758000,2014,15,55,165.625,165.625,71.904,-165.269,-999.00,-999.00,-999.0,no,no,no,134538,unknown,unknown,unknown,North
2014-06-15T15:00:00Z,1402844400,2014,15,40,166.625,166.625,71.572,-166.604,-999.00,-999.00,-999.0,no,no,no,134538,unknown,unknown,unknown,North
2014-06-16T15:00:00Z,1402930800,2014,15,30,167.625,167.625,71.223,-167.903,-999.00,-999.00,-999.0,no,no,no,134538,unknown,unknown,unknown,North
2014-06-17T16:00:28Z,1403020829,2014,16,20,168.667,168.667,71.717,-165.92,-999.00,-999.00,-999.0,no,no,no,134538,unknown,unknown,unknown,North
2014-06-18T15:00:00Z,1403103600,2014,15,5,169.625,169.625,71.218,-167.176,-999.00,-999.00,-999.0,no,no,no,134538,unknown,unknown,unknown,North
2014-06-19T15:00:00Z,1403190000,2014,15,58,170.625,170.625,71.081,-167.254,-999.00,-999.00,-999.0,no,no,no,134538,unknown,unknown,unknown,North
2014-06-20T15:00:00Z,1403276400,2014,15,43,171.625,171.625,67.492,-168.461,-999.00,-999.00,-999.0,no,no,no,134538,unknown,unknown,unknown,North
2014-06-21T16:00:28Z,1403366429,2014,16,6,172.667,172.667,61.928,-167.396,-999.00,-999.00,-999.0,no,no,no,134538,unknown,unknown,unknown,North
2014-06-22T16:00:28Z,1403452829,2014,16,0,173.667,173.667,57.188,-166.572,-999.00,-999.00,-999.0,no,no,no,134538,unknown,unknown,unknown,North
2014-06-23T15:00:00Z,1403535600,2014,15,51,174.625,174.625,54.067,-166.546,-999.00,-999.00,-999.0,no,no,no,134538,unknown,unknown,unknown,North
2014-06-24T15:00:00Z,1403622000,2014,15,21,175.625,175.625,53.904,-166.526,-999.00,-999.00,-999.0,no,no,no,134538,unknown,unknown,unknown,North
2014-06-25T13:59:31Z,1403704771,2014,14,55,176.583,176.583,53.905,-166.525,-999.00,-999.00,-999.0,no,no,no,134538,unknown,unknown,unknown,North
2014-06-26T15:00:00Z,1403794800,2014,15,20,177.625,177.625,54.903,-158.538,-999.00,-999.00,-999.0,no,no,no,134538,unknown,unknown,unknown,North
2014-06-27T16:00:28Z,1403884829,2014,16,3,178.667,178.667,57.267,-151.976,-999.00,-999.00,-999.0,no,no,no,134538,unknown,unknown,unknown,North
2014-06-28T15:00:00Z,1403967600,2014,15,57,179.625,179.625,57.782,-152.423,-999.00,-999.00,-999.0,no,no,no,134538,unknown,unknown,unknown,North
2014-06-29T15:00:00Z,1404054000,2014,15,47,180.625,180.625,57.784,-152.422,-999.00,-999.00,-999.0,no,no,no,134538,unknown,unknown,unknown,North
2014-06-30T15:00:00Z,1404140400,2014,15,31,181.625,181.625,57.783,-152.428,-999.00,-999.00,-999.0,no,no,no,134538,unknown,unknown,unknown,North
2014-07-01T15:00:00Z,1404226800,2014,15,52,182.625,182.625,55.448,-157.632,-999.00,-999.00,-999.0,no,no,no,134538,unknown,unknown,unknown,North
2014-07-02T15:00:00Z,1404313200,2014,15,55,183.625,183.625,54.196,-166.38,-999.00,-999.00,-999.0,no,no,no,134538,unknown,unknown,unknown,North
2014-07-03T15:00:00Z,1404399600,2014,15,22,184.625,184.625,53.905,-166.528,-999.00,-999.00,-999.0,no,no,no,134538,unknown,unknown,unknown,North
2014-07-04T13:59:31Z,1404482371,2014,14,51,185.583,185.583,53.902,-166.528,-999.00,-999.00,-999.0,no,no,no,134538,unknown,unknown,unknown,North
2014-07-05T15:00:00Z,1404572400,2014,15,52,186.625,186.625,53.904,-166.529,-999.00,-999.00,-999.0,no,no,no,134538,unknown,unknown,unknown,North
2014-07-07T15:00:00Z,1404745200,2014,15,57,188.625,188.625,64.382,-165.45,-999.00,-999.00,-999.0,no,no,no,134538,unknown,unknown,unknown,North
2014-07-07T19:00:28Z,1404759629,2014,19,11,188.792,188.792,64.477,-165.454,-999.00,-999.00,-999.0,no,no,no,134538,unknown,unknown,unknown,North
